sat.trackr.live / text

‹ back to catalog

STARLINK-34865

NORAD 65200 · 2025-176C

PAYLOAD ACTIVE UNKNOWN

§ Identity

Operator
Country
US
Launch date
2025-08-14
Launch site
AFETR
Launch vehicle
Mass (kg)
RCS (m²)

Purposes: comms

External: N2YO · Heavens-Above · Gunter

§ Orbital elements

Epoch: 2026-05-25T00:44:25.312128Z

Period
93.85 min
Inclination
53.1586°
Eccentricity
0.0001539
Mean motion
15.34418330 rev/d
Perigee alt
461.6 km
Apogee alt
463.7 km
Semi-major
6,840.8 km
B*
9.9680e-4
RAAN
157.7832°
Arg perigee
81.6340°
Mean anomaly
278.4837°
Rev number
4,481

§ Raw data

STARLINK-348651 65200U 25176C   26145.03084852  .00033473  00000+0  99680-3 0  99962 65200  53.1586 157.7832 0001539  81.6340 278.4837 15.34418330 44814

JSON: /api/v1/satellites/65200 · /tle

For live sub-satellite position, see the globe view (requires WebGL).

§ Visibility from observer

Set your observer location to see the next 7 days of passes ≥ 10°. The values pass through the URL so the page stays shareable.

No JS? Fill the form by hand. The geolocation button needs JavaScript.